Погода в Тавричанке

Россия / Приморский край     43°19′29″N   131°51′36″E
темп.,
°C
ветер,
м/с
пор.,
м/с
влажн.,
%
обл.,
%
осадки,
мм/ч
давл.,
гПа
погр.,
м
6 мая, чт
чт601:00+6ююз228850 0.0 100626
04:00+6ююз22863 0.0 100617
07:00+6ю228191 0.0 100722
10:00+12ю365611 0.0 1007331
13:00+14ю5854100 0.0 1006609
16:00+12ююв611634 0.0 1005244
19:00+9юв468452 0.2 1006167
22:00+8ююв2390100 0.3 100661
7 мая, пт
пт701:00+7юв22921 0.0 100618
04:00+6ююв22953 0.0 100521
07:00+7ю279445 0.0 1003192
10:00+10ююв71279100 0.0 1001431
13:00+9ю71388100 0.1 998460
16:00+8ююв81595100 1.4 993609
19:00+9ю69935 0.8 991349
22:00+7ю41194100 0.8 992343
8 мая, сб
сб801:00+9юз61281100 0.4 991558
04:00+8ююз47871 0.4 992121
07:00+7юз24855 0.0 99580
10:00+11ю4862100 0.0 994460
13:00+11ююв5774100 0.0 992494
16:00+10ююв5678100 0.1 989389
19:00+8ю3697100 3.8 989173
22:00+8зсз2492100 4.3 991120
9 мая, вс
вс901:00+6зсз4108148 0.0 993534
04:00+7сз51378100 0.0 995871
07:00+8сз5136722 0.0 997926
10:00+11сз5115263 0.0 9991213
13:00+14сз61139100 0.0 10001912
16:00+16сз6103699 0.0 10002185
19:00+14ссз48466 0.0 1003933
22:00+9зсз22648 0.0 100513
10 мая, пн
пн1001:00+8зсз226994 0.0 100615
04:00+7зсз11713 0.0 100713
07:00+7ссз11705 0.0 100818
10:00+13всв115499 0.0 1008281
13:00+14ююв45516 0.0 1008745
16:00+11ююв246156 0.0 1007133
19:00+11ююв226534 0.0 100745
22:00+10юв2271100 0.0 100824